Location: Ithaca
(42.4410°N, 76.4970°W)
Time: 20:18:34
(UTC-04:00)

HST - Visible Passes

Search period start: 25 October 2014 00:00
Search period end: 03 November 2014 23:00
Orbit: 546 x 550 km, 28.5° (Epoch: 24 October)

Date Brightness Start Highest point End Pass type
(mag) Time Alt. Az. Time Alt. Az. Time Alt. Az.
28 Oct 3.6 20:30:03 10° SSW 20:30:11 10° SSW 20:30:11 10° SSW visible
29 Oct 3.4 18:43:20 10° S 18:43:37 10° S 18:43:55 10° SSE visible
29 Oct 3.5 20:22:42 10° SSW 20:23:18 11° SSW 20:23:18 11° SSW visible
30 Oct 3.4 18:34:59 10° S 18:36:09 11° S 18:37:19 10° SSE visible
30 Oct 3.4 20:15:33 10° SSW 20:16:26 11° S 20:16:26 11° S visible
31 Oct 3.4 18:27:12 10° SSW 18:28:40 12° S 18:30:08 10° SSE visible
31 Oct 3.5 20:09:07 10° S 20:09:13 10° S 20:09:19 10° S visible
